OAO 2

Last updated on Sun Dec 07 2025 00:02:14 GMT+0000 (Coordinated Universal Time)

1 03597U 68110A 25340.64770810 .00000584 00000+0 16266-3 0 9997 2 03597 34.9939 64.6681 0005421 177.4210 182.6510 14.47238159 5617
UTC large
Height (km)
Speed (km/s)
/
Latitude / Longitude
Inclination (degrees)
Orbital Period (minutes)
Azimuth
Elevation
Range (km)
Doppler Factor

Next 0 passes for location: London (51.5072 / 0.1276)

Sorry there are no passes over London.